Regional Weather Roundup
Issued by NWS Wakefield, VA

Home | Current Version | Previous Version | Text Only | Print | Product List | Glossary Off
Versions: 1 2 3 4 5 6 7 8 9 10 11 12 13 14 15 16 17 18 19 20 21 22 23 24 25 26 27

000
ASUS41 KAKQ 251915
RWRAKQ

REGIONAL WEATHER ROUNDUP
NATIONAL WEATHER SERVICE WAKEFIELD VA
300 PM EDT SAT MAR 25 2017

Note: "fair" indicates few or no clouds below 12,000 feet with no
significant weather and/or obstructions to visibility. * = Denotes
station may not report precipitation (e.g., rain,snow,etc.),
thunder or fog.

VAZ042-051-052>054-056-252000-
NORTHERN VIRGINIA

CITY           SKY/WX    TMP DP  RH WIND       PRES   REMARKS
WASH NATIONAL  CLOUDY    77  53  43 S6        30.14F
DULLES         CLOUDY    77  50  38 NE3       30.14F
FORT BELVOIR   CLOUDY    79  51  36 VRB5      30.13F
QUANTICO       MOSUNNY   68  53  58 S13       30.14F
FREDERICKSBRG* MOSUNNY   79  53  40 SW8       30.14F
STAFFORD*      PTSUNNY   79  51  37 S5        30.18F
WARRENTON      MOSUNNY   81  45  27 NW6       30.14F
CULPEPER*      PTSUNNY   80  52  37 S6        30.14F
MANASSAS*        N/A     80  53  39 NW3       30.14F
LEESBURG*      MOSUNNY   79  54  41 W3        30.15F
WINCHESTER     CLOUDY    73  50  43 CALM      30.15F
FRONT ROYAL*   CLOUDY    75  52  43 N5        30.13F
LURAY*         PTCLDY    77  52  41 SW5       30.15F
$$

VAZ048-049-060>072-079>083-252000-
CENTRAL AND SOUTH CENTRAL VIRGINIA

CITY           SKY/WX    TMP DP  RH WIND       PRES   REMARKS
RICHMOND       PTSUNNY   78  51  38 SW15G24   30.17F
CHESTERFIELD*  FAIR     N/A N/A N/A S13G22    30.19F
PETERSBURG*    MOSUNNY   74  48  39 SW14      30.20F
HANOVER        SUNNY     79  49  34 VRB7G16   30.18F
TAPPAHANNOCK*  SUNNY     78  35  20 S14G20    30.17F
QUINTON*       FAIR      76  52  43 W9        30.17F
CHARLOTTSVILLE PTSUNNY   80  50  34 S8        30.14F
GORDONSVILLE*  PTCLDY    77  52  40 S9        30.14F
ORANGE*        CLOUDY    77  50  38 S5        30.15F
LOUISA*        PTSUNNY   81  54  39 SW7       30.15F
BUMPASS*       FAIR      77  51  40 S7        30.16F
FARMVILLE*     PTSUNNY   77  50  38 SW10G17   30.17F
CREWE*         FAIR      74  51  44 SW9G16    30.19F
FORT PICKETT*  FAIR      73  42  32 S17G26    30.21F
CHASE CITY*    FAIR      73  48  40 SW7       30.21F
CLARKSVILLE*   FAIR      73  50  43 SW12G21   30.21F
SOUTH HILL*    MOSUNNY   73  53  49 S12       30.27F
LAWRENCEVILLE* FAIR      75  50  41 SW15G21   30.21F
EMPORIA*       MOSUNNY   73  50  43 S10G17    30.23F
$$

VAZ088>098-252000-
SOUTHEAST VIRGINIA

CITY           SKY/WX    TMP DP  RH WIND       PRES   REMARKS
NORFOLK        CLOUDY    76  51  41 SW14      30.19F
VIRGINIA BEACH PTSUNNY   76  49  38 SW16G25   30.20F
NORFOLK NAVAL  PTSUNNY   77  50  38 W13G21    30.21F
WEST POINT*    MOSUNNY   77  48  35 SW14      30.19F
SALUDA*        FAIR      77  54  45 SW14G21   30.17F
NEWPORT NEWS   MOSUNNY   76  51  41 W15       30.20F
LANGLEY AFB    MOSUNNY   76  53  45 SW21G26   30.19F
FORT EUSTIS    SUNNY     76  52  43 SW12      30.17F
WILLIAMSBURG*  MOSUNNY   79  54  41 SW14      30.20F
HR EXEC AP*    FAIR      79  52  38 W8G21     30.18F
FRANKLIN*      SUNNY     74  49  40 SW14G20   30.22F
US460-WAKEFLD  MOSUNNY   75  51  43 W12G17    30.20F
$$

VAZ020-022-025-037-045-252000-
WEST CENTRAL AND SOUTHWEST VIRGINIA

CITY           SKY/WX    TMP DP  RH WIND       PRES   REMARKS
STAUNTON*      MOSUNNY   75  51  42 SE10      30.18F
WAYNESBORO*    PTCLDY    75  52  45 SW9       30.17F
HOT SPRINGS VA MOSUNNY   64  41  42 S7        30.25F
LYNCHBURG      CLOUDY    73  48  41 S10       30.20F
DANVILLE       PTSUNNY   74  51  44 SW12G21   30.21F
SOUTH BOSTON*  FAIR      74  48  39 SW6G16    30.20F
MARTINSVILLE   CLOUDY    73  48  41 S9        30.23F
ROANOKE        PTSUNNY   75  49  39 SE8       30.20F
BLACKSBURG     MOSUNNY   70  49  46 SW5       30.24F
DUBLIN*        CLOUDY    72  48  42 S7        30.22F
MARION*        PTSUNNY   71  47  41 SE7       30.22F
HILLSVILLE*    CLOUDY    66  49  53 CALM      30.22F
RICHLANDS*     FAIR      70  45  41 SW7       30.19F
WISE*          MOSUNNY   70  43  37 CALM      30.20F
ABINGDON*      SUNNY     74  46  36 SW3       30.17F
$$

MDZ021>025-VAZ099-100-252000-
SOUTHERN MARYLAND AND THE DELMARVA PENINSULA

CITY           SKY/WX    TMP DP  RH WIND       PRES   REMARKS
PATUXENT RIVER PTSUNNY   77  56  48 SW10      30.15F
BAY BRIDGE APT CLOUDY    73  52  46 S8        30.15S
LEONARDTOWN    MOSUNNY   77  50  38 W10G17    30.17F
DOVER          PTSUNNY   79  57  46 E6        30.12F
GEORGETOWN     CLOUDY    77  52  41 SW10      30.16S
EASTON         MOSUNNY   73  50  43 SW6       30.19F
CAMBRIDGE      SUNNY     75  52  43 SW7       30.16S
SALISBURY      SUNNY     75  52  44 SW13      30.16F
OCEAN CITY     MOSUNNY   74  53  48 SW13      30.16F
WALLOPS ISLAND PTSUNNY   73  52  47 SW15G25   30.19S
ACCOMACK*      MOSUNNY   74  53  46 SW16G24   30.18F
$$

NCZ012>017-030>032-252000-
NORTH CENTRAL AND EASTERN NORTH CAROLINA

CITY           SKY/WX    TMP DP  RH WIND       PRES   REMARKS
ROANOKE RAPIDS FAIR      73  52  46 SW12      30.23F
RALEIGH        PTSUNNY   75  49  39 SW14      30.24F
ELIZABETH CITY MOSUNNY   75  50  41 SW16G25   30.24F
AHOSKIE*         N/A     74  52  46 S8        30.24F
EDENTON*       MOSUNNY   75  51  42 W7        30.26F
CURRITUCK*     MOSUNNY   75  49  40 SW18      30.24F
KILL DEVIL HLS NOT AVBL
MANTEO         PTSUNNY   65  51  60 S13       30.26F
CAPE HATTERAS  MOSUNNY   70  55  59 SW12      30.29F
TARBORO*       NOT AVBL
GOLDSBORO      CLOUDY    75  50  41 S13G20    30.24F
WASHINGTON     CLOUDY    75  52  44 SW13      30.25F
GREENVILLE     PTSUNNY   75  52  43 W7        30.26F
NEW BERN       PTSUNNY   77  52  41 W13       30.27F
WILMINGTON     CLOUDY    72  52  49 S13       30.29F
$$

VAZ048-252000-
ELSEWHERE

CITY           SKY/WX    TMP DP  RH WIND       PRES   REMARKS
HARRISBURG PA  CLOUDY    75  53  46 CALM      30.12F
BALTIMORE      CLOUDY    79  52  38 NW7       30.13F
ANNAPOLIS      CLOUDY    57  49  74 SE10      30.15F
ANDREWS AFB    CLOUDY    76  50  40 W3        30.14F
PHILADELPHIA   PTSUNNY   76  50  40 S3        30.14S
HENDERSON NC   MOSUNNY   69  48  47 SW8G17    30.23F
GREENSBORO     CLOUDY    73  50  44 SW13      30.23F
ROCKY MOUNT    MOSUNNY   75  51  43 SW15G22   30.25F
$$

VAZ100-252000-
MARINE

STATION/POSITION TIME  TEMP    WIND        PRES    WAVE   SWELL
                       AIR SEA DIR/SP/G            HT/PER HT/PER
                 (UTC) (F)     (DEG/KT/KT) (MB)    (FT/S) (FT/S)
CAPE MAY NJ      1848   62 45  260/  2/  3 1020.6F
LEWES DE         1848   65 46   70/  6/  7 1020.8F
OCEAN-CITY-INLET 1848   51 48  200/ 11/ 14 1021.9F
WACHAPREAGUE VA  1848   74 54  230/  8/ 15 1021.9F
THOMAS POINT MD  1900   66 45  150/ 11/ 11   N/A
GOOSES REEF MD   1900   53 47  160/ 10/ 10 1021.4    0
COVE POINT MD    1848   60     190/  7/  9 1021.6F
SOLOMONS ISLAND  1848   74 46  240/  6/  9   N/A
BISHOPS HEAD MD  1848   52 50  140/ 11/ 12 1021.9F
PINEY POINT MD   1848          360/  5/  5   N/A
POTOMAC MD       1900   54 51  110/  6/  6 1020.5    1
CAMBRIDGE MD     1848   62 46   80/  3/  4 1020.5F
LEWISETTA VA     1848   74 49  250/ 10/ 14 1020.8F
RAPPAHANNOCK LGT 1848          190/ 11/ 13 1022.7F
STINGRAY PT      1900   63 48  250/ 10/ 12 1022.5    1
YORK RVR RNG VA  1848   69     240/ 15/ 18 1021.5F
YORKTOWN VA      1848   73 49  250/ 15/ 22 1021.9F
JAMESTOWN VA     1900   70 53  230/ 12/ 16   N/A
DOMINION TERM VA 1848   67     240/ 14/ 17 1022.7F
KIPTOPEKE VA     1848      49  240/ 14/ 17   N/A
CHES BAY BRIDGE  1848   63 49  250/ 13/ 16 1022.6F
CAPE HENRY VA    1848   74     220/  9/ 17   N/A
WILLOUBY STN VA  1848   67     240/ 17/ 18 1023.3F
S CRANEY ISL VA  1848   74     230/  6/ 14 1022.7F
CAPE HENRY BUOY  1842      50                N/A     2/ 5
CAPE CHARLES BUO 1851      47                N/A     2/ 5
OFFSHORE WE BUOY 1851      49                N/A     2/ 6
64NM E OF VA BCH 1850   54 49  200/ 12/ 12 1024.3F   3/ 5   2/ 5
DUCK PIER NC     1848   69 47  250/  9/ 14 1024.1F
44100 DUCK FRF   1835      50                N/A     2/ 5
44056 DUCK FRF   1830      49                N/A     1/10
OREGON INLET NC  1836   61 56  190/ 17/ 18 1025.3F
HATTERAS NC      1848   67 57  210/ 10/ 13 1025.7F
DIAMOND SHLS NC  1850   71 77  220/ 16/ 19 1026.0F   3/ 5   2/10
CAPE LOOKOUT NC  1900   70     220/  8/ 10 1025.9F
$$




USA.gov is the U.S. government's official web portal to all federal, state and local government web resources and services.